FLOCK 2E'-9 (41575 NORAD) Tracking and Keplerian Element Data

This shows tracking and keplerian element data for the satellite.

Feedback or suggestion? Click here.




ElementValue
Catalog41575
NameFLOCK 2E'-9
Epoch Orbit10200
Epoch Day70.94679928
Epoch Year2018
RAAN58.7875
Inclination51.6104
Eccentricity0.0003218
Argument of Perigee307.0775
Mean Anonmoly52.9851
Mean Motion16.41747452
Decay Rate0.20696072
L11 41575U 98067JZ 18070.94679928 .20696072 12478-4 12063-2 0 9994
L22 41575 51.6104 58.7875 0003218 307.0775 52.9851 16.41747452102008

Live tracking and technical data element details for FLOCK 2E'-9 (NORAD 41575). FLOCK 2E'-9 can be tracked NOW for your location showing map with azimuth and elevation plus other details from your city location.

Track the satellite on the map from your city or location and see movement details for azimuth, elevation, latitude, longitude, range, height, and movement on the map or in text.







IsCatalogInMostPopularTable: catalog: 41575, numindb: 93
Update: records affected: 1



GetName: 41575 FLOCK 2E'-9

Hit Count: updated at: Tue, 25 Sep 2018 15:50:03 GMT